Regional Weather Roundup
Issued by NWS Mobile, AL

Home | Current Version | Previous Version | Text Only | Print | Product List | Glossary On
Versions: 1 2 3 4 5 6 7 8 9 10 11 12 13 14 15 16 17 18 19 20 21 22 23 24 25 26 27
000
ASUS44 KMOB 130312
RWRMOB
REGIONAL WEATHER ROUNDUP
NATIONAL WEATHER SERVICE MOBILE AL
900 PM CST TUE DEC 12 2017

NOTE: "FAIR" INDICATES FEW OR NO CLOUDS BELOW 12,000 FEET WITH NO
      SIGNIFICANT WEATHER AND/OR OBSTRUCTIONS TO VISIBILITY.

  * THESE STATIONS ARE PART OF THE UNIVERSITY OF SOUTH ALABAMA
    MESONET AND ARE NOT UNDER NWS OR FAA QUALITY CONTROL.

ALZ061>064-130400-
COASTAL ALABAMA

CITY           SKY/WX    TMP DP  RH WIND       PRES   REMARKS
MOBILE REG APT CLEAR     47  34  60 NW6       30.14S
BROOKLEY FIELD CLEAR     50  36  58 NW9       30.15S
USA CAMPUS*    NOT AVBL
DOG RIVER*     NOT AVBL


CITY           SKY/WX    TMP DP  RH WIND       PRES   REMARKS
GULF SHORES    CLEAR     37  37 100 CALM      30.13R

$$

ALZ051>060-130400-
INTERIOR SOUTHWEST AND SOUTH CENTRAL ALABAMA

CITY           SKY/WX    TMP DP  RH WIND       PRES   REMARKS
GREENVILLE     CLEAR     47  29  49 NW6       30.09R
EVERGREEN      CLEAR     37  33  85 CALM      30.12R
ATMORE*          N/A    N/A N/A N/A NW7         N/A
ANDALUSIA/OPP  CLEAR     45  33  63 NW7       30.09S
ANDALUSIA*       N/A     43  34  70 W2        30.08S
FLORALA APT    CLEAR     41  34  76 CALM      30.12S
FLORALA*         N/A     41  36  81 W2        30.81S

$$

FLZ001>006-130400-
WESTERN FLORIDA PANHANDLE

CITY           SKY/WX    TMP DP  RH WIND       PRES   REMARKS
PENSACOLA      CLEAR     47  35  63 NW6       30.11S
NAS PENSACOLA  CLEAR     40  36  86 W3        30.12R
MILTON         CLEAR     42  35  76 NW5       30.11S
WHTNG S FIELD  CLEAR     43  35  73 NW5       30.11S


CITY           SKY/WX    TMP DP  RH WIND       PRES   REMARKS
JAY*             N/A     46  34  61 NW3       30.12R
DUKE FIELD     CLEAR     38  34  85 NW3       30.10R
CRESTVIEW      CLEAR     39  34  82 CALM      30.12R
VALPARAISO     CLEAR     42  33  71 NW6       30.10R
DESTIN         CLEAR     53  35  50 NW6       30.11R

$$

MSZ076-079-130400-
INTERIOR SOUTHEAST MISSISSIPPI

CITY           SKY/WX    TMP DP  RH WIND       PRES   REMARKS
LEAKESVILLE*     N/A     45  34  65 NW7       30.16R
AGRICOLA*        N/A     46  34  61 CALM      30.13S

$$

MARINE OBSERVATIONS

STATION/POSITION TIME  TEMP    WIND        PRES    WAVE
                       AIR SEA DIR/SP/G            HT/PER
                 (UTC) (F)     (DEG/KT/KT) (MB)    (FT/S)
PASCAGOULA       0248   47     330/  5/  6 1020.6R
PETIT BOIS ISLND 0248   53     340/ 11/ 14 1021.4R
KATRINA CUT      0230   54     340/  9     1020.7R
CEDAR POINT      0230   51     340/  7     1019.6S
E DAUPHIN ISLAND 0200   53     300/  6/  7 1020.0R
MIDDLE BAY LIGHT 0230   53     330/ 10     1020.3R
USCG MOBILE BAY  0248   50 56  320/  5/  8 1020.5R
STATE DOCKS      0248   48 56              1020.4R
MEAHER PARK      0230   49     320/  1     1020.0F
WEEKS BAY        0130   43                 1020.0R
FORT MORGAN      0248   54     340/ 12/ 14   N/A
12 S ORANGE BCH  NOT AVBL
PENSACOLA BAY    0248   50 58              1020.1R
64 S DAUPHIN ISL 0250   62 73  350/ 16/ 21 1020.6R   4/ 5
67 S FORT MORGAN 0230   60                 1020.0R

$$

SELECTED LOCATIONS ACROSS THE REGION

CITY           SKY/WX    TMP DP  RH WIND       PRES   REMARKS
NEW ORLEANS    CLEAR     50  41  71 NW7       30.18S
GULFPORT       CLEAR     45  36  70 NW6       30.15R
PASCAGOULA AP  CLEAR     40  34  79 NW5       30.15R
PASCAGOULA*      N/A     43  37  81 CALM        N/A
HATTIESBURG    CLEAR     41  33  73 NW5       30.18R
LAUREL         CLEAR     42  29  59 NW3       30.18R
MERIDIAN       CLEAR     42  31  64 NW5       30.17R
JACKSON        CLEAR     39  29  67 N5        30.17S
MONTGOMERY     CLEAR     43  30  60 W8        30.10R
TROY           CLEAR     42  33  70 W5        30.09R
ASHFORD*         N/A     43  34  70 W2        30.08S
DOTHAN         CLEAR     44  36  73 NW9       30.11R
PANAMA CITY    CLEAR     45  35  68 NW5       30.09S

$$





USA.gov is the U.S. government's official web portal to all federal, state and local government web resources and services.